星链-3887 (STARLINK-3887 )

导读 | 星芒AI

STARLINK-3887 是 SpaceX 星链计划中的一颗低轨通信卫星,属于星链星座的第三批部署任务。该卫星于2022年发射,运行在约550公里高度的近地轨道,旨在为全球用户提供高速互联网服务。它采用先进的星间激光通信技术,提高数据传输效率,并具备自动避障功能,以确保运行安全。星链项目通过大规模部署此类卫星,致力于实现全球覆盖,特别是在偏远和网络基础设施薄弱地区。

基本信息
目录编号:
52484
目录名称:
STARLINK-3887
国际标识:
2022-049AK
轨道中心:
EARTH
卫星名称:
星链-3887
卫星全名:
星链-3887 (STARLINK-3887 )
卫星状态:
在轨 (已飞行1278 天)
发射日期:
2022-05-06 UTC
国别 :
美国 (US)
星等 :
--
轨道信息
数据来源 国际轨道数据
星历时间: 2025-11-04T11:58:48+0800
17小时前
查看轨道信息
半长轴: 6917.922km
偏心率: 0.0001466
轨道倾角: 53.218°
近地点辐角 93.665°
升交点赤经 262.622°
平近点角 266.451°
近地点: 538.772km
远地点: 540.802km
周期: 95.438分钟
每日圈数: 15.088267
详细信息
固有亮度:
5
最大亮度:
2.5
卫星平台:
Starlink v1.5
覆盖范围:
全球
运营商:
太空探索技术公司
运营商所在国:
美国
制造商(研发单位):
太空探索技术公司
制造商所在国:
美国
使用方式:
暂无
卫星简介
星链(Starlink)计划是由太空探索技术公司(SpaceX)提出的一个巨型低轨卫星互联网星座项目,计划在2019年至2024年间在太空搭建由约1.2万颗卫星组成的“星链”网络,其中1584颗将部署在地球上空550千米处的近地轨道,并从2020年开始工作。该卫星仍在工作。
2D轨道图
3D轨道图
轨道高度分析图
轨道倾角分析图
轨道综合分析图
查看轨道综合分析图